Location: Jackson Park
(37.2862°N, 79.9123°W)
Time: 02:24:58
(UTC+00:00)

Tiros 1 despin weight - Pass Details

Date: 13 May 2026
Orbit: 554 x 591 km, 48.2° (Epoch: 6 June)

Event Time Altitude Azimuth Distance (km) Brightness Sun altitude
Rises 10:19:23 0° 223° (SW) 2,751 ? 0.4°
Reaches altitude 10° 10:21:40 10° 219° (SW) 1,851 ? 0.8°
Maximum altitude 10:25:49 56° 141° (SE) 671 ? 1.6°
Drops below altitude 10° 10:29:55 10° 63° (ENE) 1,841 ? 2.3°
Sets 10:32:12 0° 59° (ENE) 2,735 ? 2.8°
